Total_Precipitation_Accumulation
0.06 0.03 0.04 0.04 0.03 0.03 0.02 0.04 0.07 0.11 0.13 0.14 0.16 0.16 0.16 0.14 0.13 0.13 0.12 0.11 0.13 0.17 0.22 0.28 0.31 0.36 0.40 0.38 0.28 0.18 0.14 0.12 0.10 0.08 0.08 0.10 0.12 0.14 0.18 0.16 0.15 0.11 0.09
0.05 0.02 0.04 0.04 0.05 0.05 0.03 0.04 0.06 0.09 0.11 0.12 0.12 0.12 0.12 0.13 0.12 0.13 0.13 0.15 0.17 0.22 0.22 0.24 0.28 0.31 0.32 0.27 0.20 0.13 0.10 0.09 0.12 0.15 0.20 0.25 0.30 0.27 0.30 0.26 0.23 0.18 0.08
0.05 0.03 0.03 0.04 0.05 0.07 0.06 0.05 0.06 0.09 0.13 0.14 0.14 0.12 0.11 0.10 0.10 0.11 0.12 0.15 0.22 0.26 0.26 0.23 0.23 0.23 0.23 0.18 0.13 0.09 0.09 0.11 0.16 0.25 0.44 0.55 0.54 0.47 0.44 0.38 0.35 0.22 0.11
0.06 0.05 0.04 0.04 0.05 0.07 0.07 0.08 0.08 0.11 0.14 0.18 0.19 0.18 0.15 0.12 0.11 0.13 0.13 0.15 0.21 0.25 0.22 0.19 0.16 0.15 0.13 0.10 0.08 0.07 0.09 0.14 0.23 0.35 0.67 0.64 0.57 0.50 0.42 0.41 0.43 0.38 0.28
0.08 0.04 0.03 0.03 0.05 0.08 0.09 0.10 0.12 0.15 0.19 0.22 0.25 0.25 0.20 0.14 0.12 0.15 0.17 0.18 0.20 0.24 0.25 0.21 0.15 0.10 0.08 0.08 0.08 0.08 0.11 0.18 0.32 0.55 0.86 0.94 0.84 0.70 0.49 0.41 0.43 0.45 0.45
0.12 0.10 0.06 0.06 0.06 0.09 0.11 0.12 0.16 0.19 0.23 0.28 0.32 0.30 0.23 0.16 0.14 0.18 0.22 0.24 0.25 0.28 0.33 0.28 0.24 0.17 0.12 0.09 0.09 0.12 0.17 0.29 0.40 0.70 0.97 1.13 0.95 0.77 0.54 0.41 0.37 0.46 0.49
0.20 0.17 0.13 0.10 0.08 0.10 0.11 0.11 0.16 0.21 0.26 0.33 0.36 0.32 0.24 0.18 0.16 0.18 0.24 0.27 0.30 0.32 0.32 0.28 0.24 0.18 0.16 0.16 0.17 0.22 0.31 0.45 0.54 0.79 1.00 0.96 0.91 0.73 0.54 0.47 0.38 0.33 0.37
0.24 0.20 0.14 0.12 0.11 0.16 0.21 0.17 0.16 0.21 0.25 0.33 0.38 0.34 0.26 0.21 0.22 0.26 0.27 0.31 0.33 0.30 0.25 0.23 0.20 0.17 0.20 0.24 0.28 0.32 0.40 0.46 0.47 0.68 0.87 0.91 0.72 0.57 0.55 0.51 0.43 0.33 0.29
0.32 0.26 0.18 0.17 0.15 0.16 0.17 0.16 0.19 0.21 0.25 0.31 0.36 0.39 0.32 0.25 0.32 0.37 0.36 0.37 0.38 0.32 0.26 0.24 0.24 0.20 0.26 0.32 0.30 0.30 0.34 0.37 0.37 0.57 0.73 0.95 0.63 0.55 0.55 0.46 0.37 0.33 0.30
0.73 0.74 0.50 0.36 0.25 0.18 0.15 0.18 0.20 0.22 0.25 0.29 0.30 0.31 0.31 0.31 0.32 0.35 0.32 0.33 0.33 0.26 0.22 0.20 0.22 0.21 0.20 0.19 0.17 0.18 0.21 0.20 0.25 0.43 0.72 0.78 0.67 0.68 0.66 0.52 0.39 0.34 0.33
1.23 1.34 0.99 0.59 0.40 0.34 0.29 0.25 0.25 0.22 0.26 0.24 0.22 0.25 0.30 0.40 0.48 0.48 0.34 0.33 0.28 0.23 0.20 0.20 0.18 0.16 0.12 0.12 0.15 0.18 0.17 0.15 0.32 0.50 0.65 0.73 0.75 0.82 0.81 0.65 0.49 0.43 0.38
1.52 1.46 1.23 0.81 0.83 0.84 0.68 0.57 0.44 0.34 0.32 0.29 0.36 0.33 0.42 0.69 0.79 0.62 0.60 0.46 0.39 0.34 0.30 0.27 0.25 0.20 0.14 0.14 0.17 0.19 0.16 0.19 0.41 0.56 0.67 0.85 0.89 0.94 0.90 0.72 0.56 0.50 0.45
1.67 1.33 1.07 0.96 0.89 0.99 0.95 0.90 0.77 0.67 0.69 0.65 0.68 0.66 0.77 0.85 0.74 0.66 0.75 0.67 0.62 0.53 0.48 0.47 0.35 0.27 0.25 0.28 0.28 0.25 0.26 0.32 0.42 0.52 0.65 0.83 0.95 1.07 1.05 0.87 0.66 0.56 0.54
1.49 1.38 1.30 1.28 1.14 1.12 1.30 1.29 1.22 1.17 1.05 0.91 0.91 0.88 1.05 1.17 1.10 1.13 1.14 1.08 1.14 1.08 0.93 0.77 0.60 0.49 0.43 0.38 0.36 0.41 0.47 0.47 0.56 0.64 0.82 0.89 0.96 1.03 1.03 0.93 0.83 0.75 0.69
1.71 1.56 1.45 1.47 1.37 1.26 1.48 1.62 1.48 1.41 1.26 1.12 1.09 1.12 1.19 1.25 1.30 1.43 1.43 1.53 1.51 1.40 1.17 0.99 0.79 0.75 0.70 0.61 0.57 0.54 0.62 0.69 0.76 0.87 0.86 0.88 0.91 0.95 1.06 1.10 1.05 0.99 0.91
2.07 1.82 1.55 1.48 1.39 1.34 1.43 1.55 1.54 1.44 1.44 1.46 1.42 1.37 1.33 1.41 1.60 1.66 1.66 1.62 1.52 1.41 1.37 1.31 1.16 1.13 1.04 0.98 0.85 0.82 0.84 0.85 0.92 1.00 1.06 1.12 0.96 0.87 0.99 1.15 1.21 1.20 1.17
2.25 2.17 1.86 1.69 1.62 1.59 1.53 1.52 1.47 1.51 1.67 1.63 1.71 1.75 1.57 1.48 1.58 1.68 1.84 1.78 1.65 1.61 1.58 1.50 1.48 1.46 1.36 1.26 1.20 1.13 1.07 1.04 1.00 1.01 1.18 1.29 1.22 1.10 1.05 1.10 1.16 1.22 1.28
2.70 2.55 1.99 1.65 1.77 1.85 1.92 1.88 1.90 1.87 1.94 1.91 1.78 1.85 1.82 1.84 1.78 1.77 1.81 1.74 1.66 1.66 1.79 1.81 1.79 1.74 1.64 1.56 1.50 1.34 1.30 1.26 1.17 1.12 1.18 1.26 1.42 1.37 1.25 1.12 1.08 1.14 1.22
3.20 2.95 2.26 1.96 2.05 2.13 2.20 2.37 2.55 2.61 2.50 2.43 2.32 2.21 2.12 2.17 2.13 2.10 2.15 2.07 2.00 2.05 2.05 1.89 1.94 1.98 2.00 1.88 1.63 1.50 1.39 1.38 1.35 1.26 1.26 1.24 1.34 1.43 1.34 1.22 1.17 1.15 1.23
3.31 3.15 2.70 2.41 2.50 2.46 2.43 2.63 2.80 2.87 2.88 2.95 2.98 2.85 2.64 2.56 2.58 2.68 2.73 2.66 2.48 2.45 2.45 2.45 2.38 2.14 1.98 1.89 1.72 1.66 1.55 1.41 1.35 1.27 1.22 1.20 1.19 1.15 1.24 1.25 1.27 1.23 1.22
2.60 2.63 2.72 2.69 2.71 2.76 2.78 2.84 3.04 3.22 3.28 3.28 3.38 3.40 3.24 3.15 3.18 3.29 3.27 3.19 2.95 2.76 2.65 2.58 2.49 2.29 2.05 1.87 1.86 1.80 1.63 1.44 1.35 1.27 1.19 1.17 1.11 1.05 1.11 1.18 1.11 1.05 1.08
2.33 2.49 2.61 2.57 2.77 3.03 3.36 3.78 4.11 4.30 4.22 4.11 4.07 3.98 3.84 3.73 3.64 3.57 3.52 3.33 3.09 2.90 2.68 2.51 2.43 2.33 2.16 2.00 1.91 1.93 1.70 1.51 1.26 1.13 1.13 1.07 0.99 0.93 0.92 0.91 0.95 0.96 0.95
2.01 2.27 2.43 2.65 3.08 3.55 4.06 4.75 5.21 5.12 4.79 4.64 4.38 4.29 4.06 3.77 3.70 3.70 3.44 3.24 3.04 2.83 2.68 2.49 2.40 2.35 2.16 2.03 1.92 1.92 1.74 1.54 1.34 1.17 1.02 0.95 0.92 0.90 0.87 0.84 0.86 0.94 0.96
1.81 2.17 2.48 2.86 3.38 3.99 4.49 4.95 5.26 5.30 5.09 4.87 4.44 4.08 3.69 3.36 3.17 3.08 2.98 2.80 2.67 2.52 2.37 2.24 2.21 2.15 2.01 1.85 1.74 1.55 1.42 1.30 1.26 1.15 0.99 0.90 0.90 0.93 0.92 0.88 0.86 0.91 0.97
1.66 2.09 2.46 2.80 3.36 3.92 4.44 4.82 5.03 5.15 5.05 4.73 4.13 3.56 3.18 2.89 2.68 2.46 2.28 2.19 2.16 2.05 1.85 1.70 1.66 1.63 1.57 1.49 1.46 1.36 1.26 1.15 1.08 1.04 0.99 0.90 0.87 0.85 0.84 0.84 0.83 0.83 0.87
1.41 1.80 2.17 2.51 3.16 3.80 4.33 4.72 4.96 4.99 4.73 4.20 3.61 3.10 2.80 2.57 2.34 2.15 2.02 1.83 1.71 1.58 1.40 1.22 1.17 1.21 1.26 1.27 1.23 1.18 1.05 0.98 0.93 0.93 0.92 0.86 0.84 0.83 0.82 0.81 0.79 0.78 0.81